Location: Mactaquac Provincial Park
(45.9573°N, 66.8897°W)
Time: 15:56:05
(UTC-04:00)

Cosmos 1867 - Visible Passes

Search period start: 22 December 2014 00:00
Search period end: 01 January 2015 00:00
Orbit: 778 x 798 km, 65.0° (Epoch: 22 December)

Date Brightness Start Highest point End Pass type
(mag) Time Alt. Az. Time Alt. Az. Time Alt. Az.
22 Dec 5.6 17:24:37 10° N 17:25:30 10° N 17:26:23 10° NNE visible
22 Dec 5.3 19:07:02 10° NNW 19:09:30 19° N 19:09:30 19° N visible
22 Dec 6.4 20:50:07 10° NW 20:50:11 10° NW 20:50:11 10° NW visible
23 Dec 5.1 18:35:34 10° NNW 18:39:04 19° NNE 18:39:04 19° NNE visible
23 Dec 5.8 20:18:31 10° NNW 20:19:45 17° NNW 20:19:45 17° NNW visible
24 Dec 5.2 18:04:07 10° NNW 18:07:28 16° NNE 18:08:41 15° NE visible
24 Dec 5.1 19:46:57 10° NNW 19:49:23 26° NNW 19:49:23 26° NNW visible
25 Dec 5.4 17:32:40 10° N 17:35:31 14° NNE 17:38:22 10° NE visible
25 Dec 4.5 19:15:25 10° NNW 19:19:06 35° N 19:19:06 35° N visible
25 Dec 6.3 20:59:11 10° NW 20:59:48 13° NW 20:59:48 13° NW visible
26 Dec 4.2 18:43:54 10° NNW 18:48:51 34° NE 18:48:57 34° NE visible
26 Dec 5.5 20:27:24 10° NW 20:29:40 24° NW 20:29:40 24° NW visible
27 Dec 4.5 18:12:24 10° NNW 18:17:04 28° NE 18:18:58 23° ENE visible
27 Dec 4.4 19:55:42 10° NW 19:59:42 47° WNW 19:59:42 47° WNW visible
28 Dec 4.7 17:40:55 10° NNW 17:45:14 23° NE 17:49:14 11° E visible
28 Dec 3.5 19:24:03 10° NW 19:29:32 87° SW 19:29:58 76° SSE visible
28 Dec 6.4 21:09:32 10° WNW 21:10:43 13° W 21:10:43 13° W visible
29 Dec 3.4 18:52:26 10° NNW 18:57:55 73° NE 19:00:37 30° SE visible
29 Dec 5.8 20:37:08 10° WNW 20:40:56 20° WSW 20:41:24 19° WSW visible
30 Dec 3.6 18:20:52 10° NNW 18:26:15 56° NE 18:31:35 10° SE visible
30 Dec 5.5 20:05:03 10° WNW 20:09:31 26° WSW 20:12:43 15° SSW visible
31 Dec 3.9 17:49:19 10° NNW 17:54:33 44° NE 17:59:44 10° ESE visible
31 Dec 5.1 19:33:09 10° NW 19:38:03 35° WSW 19:42:55 10° S visible
